Weather History for Bishop, CA

Change the Weather History Date:

Wednesday, January 9, 2013

  Actual Average Record
Temperature  
Mean Temperature 41 °F 38 °F  
Max Temperature 56 °F 54 °F 67 °F (1962)
Min Temperature 25 °F 22 °F 3 °F (1955)
Degree Days  
Heating Degree Days 24 27  
Month to date heating degree days 276 245  
Since 1 July heating degree days 1995 1992  
Cooling Degree Days 0 0  
Month to date cooling degree days 0 0  
Year to date cooling degree days 0 0  
Moisture  
Dew Point 27 °F    
Average Humidity 63    
Maximum Humidity 88    
Minimum Humidity 38    
Precipitation  
Precipitation 0.00 in 0.04 in 0.66 in (2005)
Month to date precipitation T 0.37  
Year to date precipitation T 0.37  
Snow  
Snow 0.00 in 0.20 in 1.20 in (1973)
Month to date snowfall T 1.1  
Since 1 July snowfall 2.8 2.8  
Snow Depth 0.00 in    
Sea Level Pressure  
Sea Level Pressure 30.01 in    
Wind  
Wind Speed 5 mph (North)    
Max Wind Speed 17 mph    
Max Gust Speed 29 mph    
Visibility 10 miles    
Events      
T = Trace of Precipitation, MM = Missing Value Source: NWS Daily Summary

Daily Weather History Graph

Daily Weather History Graph

Search for Another Location

Airport:

Trip Planner

Search our weather history database for the weather conditions in past years. The results will help you decide how hot, cold, wet, or windy it might be!

Date:

Astronomy

Jan. 09, 2013 Rise Set
Actual Time 7:07 AM PST 4:53 PM PST
Civil Twilight 6:39 AM PST 5:22 PM PST
Nautical Twilight 6:06 AM PST 5:54 PM PST
Astronomical Twilight 5:35 AM PST 6:26 PM PST
Moon 4:52 AM PST (1/9) 3:00 PM PST (1/9)
Length of Visible Light 10h 43m
Length of Day
9h 45m
Waning Crescent, 6% of the Moon is Illuminated
Jan 9
Waning Crescent
Jan 11
New
Jan 18
First Quarter
Jan 26
Full
Feb 3
Last Quarter

Hourly Weather History & Observations

Time (PST) Temp. Windchill Dew Point Humidity Pressure Visibility Wind Dir Wind Speed Gust Speed Precip Events Conditions
12:56 AM 32.0 °F 25.6 °F 26.1 °F 79% 30.22 in 10.0 mi NW 6.9 mph - N/A   Clear
1:56 AM 28.9 °F 22.8 °F 25.0 °F 85% 30.22 in 10.0 mi North 5.8 mph - N/A   Clear
2:56 AM 30.0 °F 24.1 °F 25.0 °F 82% 30.21 in 10.0 mi NNW 5.8 mph - N/A   Clear
3:56 AM 28.0 °F 20.8 °F 24.1 °F 85% 30.19 in 10.0 mi NNW 6.9 mph - N/A   Clear
5:56 AM 27.0 °F 19.5 °F 23.0 °F 85% 30.21 in 10.0 mi NNW 6.9 mph - N/A   Clear
6:56 AM 26.1 °F 21.9 °F 23.0 °F 88% 30.21 in 10.0 mi North 3.5 mph - N/A   Clear
7:56 AM 28.0 °F 24.2 °F 25.0 °F 88% 30.21 in 10.0 mi NNW 3.5 mph - N/A   Clear
8:56 AM 36.0 °F 33.3 °F 28.0 °F 73% 30.19 in 10.0 mi North 3.5 mph - N/A   Clear
9:56 AM 42.1 °F - 30.0 °F 62% 30.16 in 10.0 mi Calm Calm - N/A   Clear
10:56 AM 43.0 °F 41.3 °F 28.9 °F 58% 30.11 in 10.0 mi South 3.5 mph - N/A   Clear
11:56 AM 44.1 °F - 28.9 °F 55% 30.06 in 10.0 mi Calm Calm - N/A   Clear
12:56 PM 46.0 °F - 28.0 °F 50% 30.01 in 10.0 mi Calm Calm - N/A   Clear
1:56 PM 50.0 °F - 28.9 °F 44% 29.96 in 10.0 mi NE 3.5 mph - N/A   Clear
2:56 PM 54.0 °F - 28.9 °F 38% 29.91 in 10.0 mi SSE 12.7 mph 19.6 mph N/A   Clear
3:56 PM 54.0 °F - 28.9 °F 38% 29.87 in 10.0 mi SSE 11.5 mph - N/A   Clear
4:56 PM 52.0 °F - 28.0 °F 40% 29.84 in 10.0 mi South 15.0 mph 21.9 mph N/A   Clear
5:56 PM 48.2 °F - 28.4 °F 46% 29.83 in 10.0 mi Calm Calm - N/A   Overcast
6:56 PM 46.9 °F - 28.9 °F 50% 29.81 in 10.0 mi NNE 8.1 mph - N/A   Overcast
7:56 PM 45.0 °F 41.2 °F 28.9 °F 53% 29.81 in 10.0 mi North 6.9 mph - N/A   Overcast
8:56 PM 46.9 °F - 28.0 °F 48% 29.77 in 10.0 mi North 9.2 mph - N/A   Mostly Cloudy
10:56 PM 41.0 °F - 28.0 °F 60% 29.72 in 10.0 mi Calm Calm - N/A   Scattered Clouds
11:56 PM 36.0 °F - 26.1 °F 67% 29.70 in 10.0 mi Calm Calm - N/A   Clear